NJE201 EGGW-LEIB

Flight info

Callsign NJE201
Flight time N/A
Altitude 26000
Route RODNI N27 ICTAM Q63 CPT/N0453F390 UN859 SOPIL DCT BALAN DCT EVPOK DCT NARAK DCT GAI DCT LOMRA DCT ROCAN/N0470F310 DCT PUMAL N859 BCN Z174 CORDA
Aircraft CL60/M-SBDE1E2E3FGHIJ1J4J5J7M3RWXYZ/LB1V1D1

Departure

Time N/A
Airport London Luton Airport (EGGW)

Arrival

Time 2026-04-30 18:42
Airport Ibiza Airport (LEIB)
Time Latitude Longitude Altitude Speed Heading
2026-04-30 17:39 44.60830 1.65081 39108 ft 459 kts 171°
2026-04-30 17:42 44.29673 1.74767 39115 ft 461 kts 172°
2026-04-30 17:43 44.13882 1.78315 39118 ft 460 kts 175°
2026-04-30 17:44 43.94933 1.82423 39103 ft 459 kts 178°
2026-04-30 17:47 43.66351 1.85191 39075 ft 458 kts 181°
2026-04-30 17:48 43.44147 1.87314 39068 ft 458 kts 181°
2026-04-30 17:50 43.18809 1.89733 39083 ft 457 kts 181°
2026-04-30 17:52 42.99765 1.91542 39072 ft 456 kts 181°
2026-04-30 17:54 42.71219 1.94236 39181 ft 455 kts 182°
2026-04-30 17:56 42.45978 1.98889 39139 ft 458 kts 177°
2026-04-30 17:58 42.27128 2.01736 39216 ft 453 kts 182°
2026-04-30 18:00 42.01973 2.04085 39086 ft 454 kts 182°
2026-04-30 18:01 41.86257 2.05556 39108 ft 453 kts 181°
2026-04-30 18:02 41.67514 2.07306 39079 ft 450 kts 181°
2026-04-30 18:04 41.48763 2.09051 39092 ft 449 kts 181°
2026-04-30 18:06 41.23854 2.11857 39101 ft 450 kts 178°
2026-04-30 18:08 41.02101 2.15510 39084 ft 450 kts 177°
2026-04-30 18:10 40.77282 2.19640 39064 ft 451 kts 177°
2026-04-30 18:11 40.55553 2.23232 39059 ft 448 kts 177°
2026-04-30 18:13 40.40103 2.25884 39063 ft 450 kts 173°
2026-04-30 18:14 40.24773 2.29862 39056 ft 449 kts 172°
2026-04-30 18:15 40.06400 2.34603 39054 ft 450 kts 172°
2026-04-30 18:16 39.94144 2.37749 39049 ft 450 kts 173°
2026-04-30 18:17 39.88003 2.39321 39045 ft 449 kts 172°
2026-04-30 18:18 39.78811 2.41664 38544 ft 455 kts 173°
2026-04-30 18:18 39.75694 2.42213 38006 ft 448 kts 180°
2026-04-30 18:18 39.72606 2.42228 37455 ft 442 kts 187°
2026-04-30 18:18 39.69544 2.41819 36883 ft 440 kts 190°
2026-04-30 18:19 39.66493 2.41344 36313 ft 440 kts 190°
2026-04-30 18:19 39.63461 2.40686 35705 ft 438 kts 196°
2026-04-30 18:19 39.60595 2.39586 35085 ft 435 kts 203°
2026-04-30 18:19 39.57830 2.38012 34481 ft 433 kts 210°
2026-04-30 18:20 39.55244 2.36007 33885 ft 432 kts 217°
2026-04-30 18:20 39.52883 2.33617 33154 ft 431 kts 224°
2026-04-30 18:20 39.50815 2.30899 32560 ft 424 kts 231°
2026-04-30 18:20 39.49027 2.27892 32023 ft 420 kts 237°
2026-04-30 18:21 39.47419 2.24752 31462 ft 425 kts 238°
2026-04-30 18:21 39.45786 2.21541 30898 ft 434 kts 238°
2026-04-30 18:21 39.44125 2.18280 30324 ft 437 kts 237°
2026-04-30 18:21 39.42449 2.14995 29743 ft 434 kts 237°
2026-04-30 18:22 39.40802 2.11769 29170 ft 431 kts 237°
2026-04-30 18:22 39.37547 2.05399 28047 ft 424 kts 237°
2026-04-30 18:22 39.35933 2.02246 27487 ft 420 kts 237°
2026-04-30 18:23 39.34334 1.99124 26936 ft 418 kts 237°
2026-04-30 18:23 39.32725 1.95985 26385 ft 415 kts 238°
2026-04-30 18:23 39.31141 1.92897 25824 ft 412 kts 238°
2026-04-30 18:23 39.29573 1.89844 25288 ft 410 kts 237°
2026-04-30 18:24 39.26451 1.83770 24213 ft 405 kts 237°
2026-04-30 18:24 39.24909 1.80775 23679 ft 403 kts 237°
2026-04-30 18:24 39.23371 1.77790 23147 ft 399 kts 237°
2026-04-30 18:25 39.21844 1.74830 22629 ft 396 kts 237°
2026-04-30 18:25 39.18687 1.69109 21583 ft 392 kts 234°
2026-04-30 18:25 39.17033 1.66321 21056 ft 390 kts 234°
2026-04-30 18:26 39.13770 1.60819 20024 ft 385 kts 234°
2026-04-30 18:26 39.12166 1.58116 19525 ft 382 kts 234°
2026-04-30 18:26 39.10560 1.55412 19028 ft 380 kts 234°
2026-04-30 18:27 39.07366 1.50042 18026 ft 375 kts 234°
2026-04-30 18:27 39.05803 1.47416 17543 ft 373 kts 234°
2026-04-30 18:28 39.02707 1.42141 16537 ft 367 kts 234°
2026-04-30 18:28 39.01197 1.39532 16070 ft 365 kts 234°
2026-04-30 18:28 38.98196 1.34355 15108 ft 360 kts 234°
2026-04-30 18:29 38.96703 1.31782 14628 ft 357 kts 234°
2026-04-30 18:29 38.92310 1.24225 13227 ft 350 kts 234°
2026-04-30 18:30 38.89425 1.19271 12309 ft 346 kts 234°
2026-04-30 18:30 38.86998 1.14036 11410 ft 335 kts 242°
2026-04-30 18:31 38.85925 1.11451 10952 ft 324 kts 242°
2026-04-30 18:31 38.83855 1.06480 10217 ft 302 kts 242°
2026-04-30 18:32 38.82009 1.02057 10248 ft 263 kts 242°
2026-04-30 18:32 38.81174 1.00060 10174 ft 245 kts 242°
2026-04-30 18:32 38.79617 0.96339 9517 ft 233 kts 242°
2026-04-30 18:33 38.78669 0.94666 9073 ft 234 kts 226°
2026-04-30 18:33 38.76283 0.91876 8208 ft 234 kts 219°
2026-04-30 18:33 38.74816 0.90936 7741 ft 238 kts 194°
2026-04-30 18:34 38.73167 0.90929 7373 ft 241 kts 167°
2026-04-30 18:34 38.70668 0.93550 6725 ft 240 kts 112°
2026-04-30 18:34 38.70352 0.95624 6398 ft 236 kts 84°
2026-04-30 18:35 38.70782 0.97582 6103 ft 230 kts 61°
2026-04-30 18:35 38.71542 0.99367 5812 ft 229 kts 60°
2026-04-30 18:35 38.72262 1.01196 5506 ft 227 kts 61°
2026-04-30 18:36 38.73718 1.04733 5049 ft 225 kts 60°
2026-04-30 18:36 38.74450 1.06487 4853 ft 225 kts 60°
2026-04-30 18:36 38.75930 1.10030 4372 ft 226 kts 60°
2026-04-30 18:37 38.76659 1.11774 4066 ft 223 kts 60°
2026-04-30 18:37 38.77383 1.13509 3773 ft 221 kts 60°
2026-04-30 18:37 38.78100 1.15226 3488 ft 218 kts 60°
2026-04-30 18:37 38.78816 1.16943 3201 ft 215 kts 60°
2026-04-30 18:38 38.79518 1.18627 2923 ft 213 kts 60°
2026-04-30 18:38 38.80204 1.20273 2659 ft 206 kts 60°
2026-04-30 18:38 38.80859 1.21845 2392 ft 197 kts 61°
2026-04-30 18:38 38.81490 1.23362 2140 ft 186 kts 61°
2026-04-30 18:39 38.82086 1.24794 1899 ft 179 kts 61°
2026-04-30 18:39 38.82657 1.26168 1678 ft 175 kts 61°
2026-04-30 18:39 38.83230 1.27543 1425 ft 174 kts 62°
2026-04-30 18:39 38.83798 1.28912 1220 ft 164 kts 62°
2026-04-30 18:40 38.84288 1.30093 1034 ft 140 kts 62°
2026-04-30 18:40 38.84723 1.31143 838 ft 130 kts 62°
2026-04-30 18:40 38.85139 1.32144 655 ft 122 kts 63°
2026-04-30 18:40 38.85565 1.33098 506 ft 125 kts 61°
2026-04-30 18:41 38.85961 1.34093 342 ft 126 kts 63°
2026-04-30 18:41 38.86364 1.35079 190 ft 124 kts 62°
2026-04-30 18:41 38.86766 1.36058 46 ft 123 kts 62°
2026-04-30 18:41 38.87128 1.36933 21 ft 95 kts 63°
2026-04-30 18:42 38.87382 1.37547 26 ft 44 kts 61°
2026-04-30 18:42 38.87630 1.37896 25 ft 15 kts 30°
2026-04-30 18:42 38.87676 1.37915 26 ft 6 kts 347°
2026-04-30 18:45 38.87732 1.37369 42 ft 0 kts 332°
2026-04-30 18:45 38.87735 1.37367 42 ft 0 kts 332°